Погода Березово

Погода Березово : погода сейчас, прогноз погоды и архив. Всё, что Вы хотите узнать о погоде Березово!

Поиск расширенной информации на нашем сайте:

Другие новости

Новости СМИ2

Главная страница сайта

Новости сайта

03.07.2017

Напоминаем, что на нашем специализированном сайте Метеоцентр.Азия вы можете получить высокодетализированные автоматические прогнозы погоды по пунктам России, СНГ и мира в авиационном формате (включающие направление и скорость ветра, видимость, явления погоды, количество и форму облачности, нижнюю и верхнюю границу облачности).


Погода Березово - сегодня

Время (UTC), дата Ветер
(°,м/с) 
Видим.   Явления Облачность Т
(°С)
Тd
(°С)
f(%) Тe
(°С)
Pmin
(гПа)
dP
(гПа)
Po
(мм)
O2
(г/м3)
Тmin Tmax R s Состояние
почвы
03 12.08.18 250 (З) 20000 м    10/0 верхняя 
[Ci fib]
+9.2 +5.6 78 +9  1001.6  -0.1  748  291  +5.8         
06 12.08.18 260 (З) 20000 м    10/0 средняя, верхняя 
[Ac trans|Ci fib]
+14.6 +6.1 57 +14  1000.7  -0.9  748  285           
09 12.08.18 260 (З) 20000 м    10/4 1300 м верхняя 
[Sc|Ci fib]
+17.3 +5.6 46 +18  1000.4  -0.2  747  282           
12 12.08.18 310 (СЗ) 20000 м    10/0 средняя, верхняя 
[Ac trans|Ci fib]
+17.1 +6.4 49 +18  1000.8  0.4  748  283           
18 12.08.18 030 (СВ) 20000 м    10/5 930 м верхняя 
[Sc|Ci fib]
+10.2 +9.2 94 +10  1002.2  749  289           
21 12.08.18 тихо ()   4000 м  дымка  10/0 средняя, верхняя 
[Ac trans|Ci fib]
+7.3 +6.4 94 +7  1002.4  0.2  749  293           
00 13.08.18 тихо ()   4000 м  дымка  4/0 средняя 
[Ac trans]
+6.1 +5.4 95 +6  1002.8  0.3  749  294           
03 13.08.18 200 (Ю) 20000 м    6/0 средняя, верхняя 
[Ac trans|Ci fib]
+14.6 +12 84 +19  1002.2  -0.5  749  284  +5.9        сухая 
06 13.08.18 200 (Ю) 20000 м    9/0 средняя 
[Ac und]
+17.2 +13.1 77 +23  1002.5  0.4  749  281           
09 13.08.18 170 (Ю) 20000 м    3/3 600 м 
[Cu hum]
+21.6 +15.6 69 +31  1011.4  -1  748  276           
12 13.08.18 160 (Ю) 20000 м    8/3 600 м верхняя 
[Cu hum|Ci fib]
+22.4 +16.5 69 +34  1000.9  -0.5  748  275           
21 13.08.18 190 (Ю) 20000 м    8/3 630 м средняя, верхняя 
[Sc|Ac trans|Ci fib]
+17.3 +16.1 93 +29  998.2  -0.4  746  279           
00 14.08.18 200 (Ю) 20000 м    8/3 120 м средняя 
[St|Ac trans]
+16.3 +15.2 93 +25  997.5  -0.7  745  280           
03 14.08.18 220 (ЮЗ) 20000 м    3/0 средняя, верхняя 
[Ac trans|Ci fib]
+19 +15.6 81 +30  997.6  0.1  745  277  +16.2         
06 14.08.18 220 (ЮЗ) 7{10}  20000 м    8/3 1000 м верхняя 
[Cu hum|Ci fib]
+21.7 +10.2 48 +23  998.2  0.7  746  277           
15 14.08.18 220 (ЮЗ) 5{12}  20000 м    3/0 средняя 
[Ac trans]
+18.6 +9.5 55 +20  1002.9  0.8  749  281    +22.6       
18 14.08.18 220 (ЮЗ) 2{12}  20000 м    8/0 верхняя 
[Ci fib]
+12.8 +9.9 83 +14  1005  751  287           
21 14.08.18 250 (З) 20000 м    6/0 верхняя 
[Ci fib]
+9.8 +8.8 93 +10  1006.2  1.2  752  291           
00 15.08.18 250 (З) 20000 м    1/0 средняя 
[Ac trans]
+7 +6.4 96 +8  1007.3  1.1  753  295           
03 15.08.18 260 (З) 20000 м    10/0 средняя, верхняя 
[Ac trans|Ci fib]
+11.1 +9 87 +11  1008.1  0.8  753  290  +6.6         
06 15.08.18 нст () 20000 м    10/1 600 м верхняя 
[Sc|Ci fib]
+16 +10.5 70 +19  1008.2  0.1  753  285           
09 15.08.18 120 (ЮВ) 20000 м    10/8 800 м кучево-дожд., верхняя 
[Cb cap|Ci fib]
+18 +10.2 60 +20  1008.1  753  283           
12 15.08.18 060 (СВ) 20000 м    10/6 900 м кучево-дожд., верхняя 
[Cb cap|Ci fib]
+17.6 +11.3 67 +21  1008.4  0.3  753  283           
15 15.08.18 340 (С) 20000 м    9/4 600 м кучево-дожд., средняя 
[Cb cap|Ac und]
+15.3 +12.2 82 +19  1009.7  1.2  754  285    +18.4       
18 15.08.18 340 (С) 20000 м  {ливн. осадки}  6/0 средняя 
[Ac trans]
+11.1 +10.2 94 +12  1010.1  0.3  755  290           
Время (UTC), дата Ветер
(°,м/с) 
Видим.   Явления Облачность Т
(°С)
Тd
(°С)
f(%) Тe
(°С)
Pmin
(гПа)
dP
(гПа)
Po
(мм)
O2
(г/м3)
Тmin Tmax R s Состояние
почвы

Для получения пояснительной информации подведите курсор к названию столбца.

ПОГОДА Березово - архив

Всё, что Вы хотите узнать о погоде Березово - удобно и подробно!

Выберите нужную дату (начиная с 1 января 2015* года) и нажмите кнопку "Найти".
Будут отображены архивные сводки погоды по пункту Березово, начиная с указанной даты.


Отображать данные в формате CSV (для использования в таблицах Excel)


Внимание! Наш архив погоды предназначен исключительно для личного некоммерческого использования в познавательных целях. Если Вам необходимы официальные справки о состоянии погоды (для производственных, юридических, коммерческих и т.п. целей), обращайтесь в органы Росгидромета.

*Примечание: данная дата относится к архиву по метеостанциям СССР (Россия, СНГ, Балтия).
Архив по метеостанциям Зарубежной Европы и Азии (кроме Китая) хранится 10 дней, по другим регионам земного шара (Китай, Африка, Америка, Австралия, Океания) - 1 день.

Березово - район местоположения метеостанции


Название, широта, долгота, высота метеостанции:
Березово 63.9°ш. 65.1°д. 32 м над ур. моря [Российская Федерация]

Дополнительная информация

В oтличие oт бoльшинства пoгoдных сайтoв мы публикуем пoдрoбную метеoинфoрмацию в детальнoм прoфессиoнальнoм фoрмате.

Характеристики температуры и влажнoсти вoздуха измеряются на высoте 2 м в тени вдали oт зданий и деревьев.
Скoрoсть ветра измеряется на высoте 10 м (на урoвне рoста челoвека скoрoсть ветра ниже в 1.5-2 раза). Если метеoстанция нахoдится в гoрoде или в лесу, тo скoрoсть ветра занижена на 2-4 м/с пo сравнению с oткрытым местoм. Скoрoсть ветра над акватoриями крупных рек и oзёр, а также на вершинах хoлмoв на 2-5 м/с выше, чем в oбычных услoвиях.
Атмoсфернoе давление в разных тoчках местнoсти мoжет значительнo oтличаться oт давления на метеoстанции, в зависимoсти oт услoвий рельефа (при пoдъёме на 10 м давление пoнижается примернo на 1 мм рт.ст.).